Location: Risskov
(56.1972°N, 10.2480°E)
Time: 22:34:54
(UTC+00:00)

BlueWalker 3 - Pass Details

Date: 30 November 2022
Orbit: 498 x 517 km, 53.2° (Epoch: 08 February)

Event Time Altitude Azimuth Distance (km) Brightness Sun altitude
Rises 18:10:39 0° 265° (W) 2,628 6.9 -26.6°
Reaches altitude 10° 18:12:52 10° 261° (W) 1,737 5.6 -26.9°
Enters shadow 18:15:21 34° 243° (WSW) 849 3.5 -27.2°
